FREGAT DEB

基本信息
目录编号:
46406
目录名称:
FREGAT DEB
国际标识:
2011-037LM
轨道中心:
EARTH
物体状态:
在轨
发射日期:
2011-07-18 UTC
轨道信息
数据来源: 国际轨道数据
星历时间: 2026-07-13T16:14:33+0800
半长轴: 8973.597km
偏心率: 0.2013572
轨道倾角: 51.578°
近地点辐角: 157.486°
升交点赤经: 192.916°
平近点角: 212.857°
近地点: 788.561km
远地点: 4402.359km
周期: 140.997分钟
每日圈数: 10.212992
详细信息
发射场:
TTMTR
轨道高度:
LEO
数据来源:
AOE Integration Group
参考系:
TEME
时间系统:
UTC
历元类型:
SGP4
2D轨道图
3D轨道图
轨道高度分析图
轨道倾角分析图
轨道综合分析图
查看轨道综合分析图